Airfield :
LOGIN :

Register | Disclaimer

   EN    FR    IT 

 










Legend :    VFR   Marginal VFR   IFR   Intensive IFR   Very Intensive IFR
Visi :
Ceiling :
>= 8 km
>= 3000ft
5 to 8 km
1000 to 3000 ft
1500m to 5 km
500 to 1000 ft
800 to 1500m
200 to 500 ft
< 800m
< 200 ft
Symbols :   Thunderstorms  Fog  Heavy snow  Heavy precipitations  Wind > 20 kt
SIGMETs :     Misc.  Thunderstorms  Icing  Turbulence  Mountain Waves  Volcanic Ashes







- Airport Elevation : 1187 ft


LIBV - Gioia del Colle Bari

CURRENT METAR :
  • 280155Z 17005KT CAVOK 22/15 Q1010 RMK SKC VIS MIN 9999 WIND THR32 18005KT WIND THR14 18007KT BLU

EXPIRED METARs :
  • 280055Z 17005KT CAVOK 22/15 Q1010 RMK SKC VIS MIN 9999 WIND THR32 18005KT WIND THR14 18005KT BLU

TAF TAF LIBV
Valid from the 28 at 03:00 until the 28 at 12:00 UTC


280200Z 2803/2812 18006KT CAVOK
TEMPO 2803/2806 6000 NSC
No reported NOTAMs for that airfield.



MET'MAP, your aeronautical weather chart ! - Copyright ORBIFLY December 2007 - Disclaimer

ORBIFLY MET'MAP TEAM :

Programming & Development : Alexandra Zaïnal
Concept & Development : Baudouin d'Aumeries
Co-Development & Prog : Marc-Olivier Méhu
Technical & hardware support : Manuel Goepfert

Contact : metmap@orbifly.com




SOURCES & CREDITS :

   NOAA